Time,TemperatureF,DewpointF,PressureIn,WindDirection,WindDirectionDegrees,WindSpeedMPH,WindSpeedGustMPH,Humidity,HourlyPrecipIn,Conditions,Clouds,dailyrainin,SoftwareType,DateUTC
2013-04-01 00:02:00,23.0,16.0,-100.00,NW,325,19.0,26.0,74,0.00,,,0.00,,2013-04-01 05:02:00,
2013-04-01 00:12:00,23.0,16.0,-100.00,NW,315,18.0,25.0,74,0.00,,,0.00,,2013-04-01 05:12:00,
2013-04-01 00:22:00,22.0,16.0,-100.00,NW,320,21.0,25.0,74,0.00,,,0.00,,2013-04-01 05:22:00,
2013-04-01 00:32:00,22.0,16.0,-100.00,NW,320,16.0,25.0,74,0.00,,,0.00,,2013-04-01 05:32:00,
2013-04-01 00:43:00,22.0,16.0,-100.00,NW,320,21.0,25.0,74,0.00,,,0.00,,2013-04-01 05:43:00,
2013-04-01 00:52:00,22.0,16.0,-100.00,NW,320,17.0,23.0,74,0.00,,,0.00,,2013-04-01 05:52:00,
2013-04-01 01:02:00,22.0,16.0,-100.00,NW,325,14.0,26.0,74,0.00,,,0.00,,2013-04-01 06:02:00,
2013-04-01 01:12:00,22.0,16.0,-100.00,NW,325,16.0,21.0,75,0.00,,,0.00,,2013-04-01 06:12:00,
2013-04-01 01:22:00,21.0,14.0,-100.00,NW,325,17.0,22.0,75,0.00,,,0.00,,2013-04-01 06:22:00,
2013-04-01 01:33:00,21.0,16.0,-100.00,NW,315,14.0,24.0,75,0.00,,,0.00,,2013-04-01 06:33:00,
2013-04-01 01:42:00,21.0,14.0,-100.00,NW,310,16.0,23.0,76,0.00,,,0.00,,2013-04-01 06:42:00,
2013-04-01 01:52:00,21.0,14.0,-100.00,NW,325,16.0,21.0,76,0.00,,,0.00,,2013-04-01 06:52:00,
2013-04-01 02:02:00,21.0,14.0,-100.00,NNW,330,17.0,21.0,76,0.00,,,0.00,,2013-04-01 07:02:00,
2013-04-01 02:12:00,21.0,14.0,-100.00,NNW,330,17.0,22.0,76,0.00,,,0.00,,2013-04-01 07:12:00,
2013-04-01 02:22:00,20.0,14.0,-100.00,NW,320,14.0,19.0,77,0.00,,,0.00,,2013-04-01 07:22:00,
2013-04-01 02:32:00,20.0,14.0,-100.00,NW,320,15.0,22.0,77,0.00,,,0.00,,2013-04-01 07:32:00,
2013-04-01 02:42:00,20.0,14.0,-100.00,NW,325,15.0,21.0,77,0.00,,,0.00,,2013-04-01 07:42:00,
2013-04-01 02:52:00,20.0,14.0,-100.00,NW,325,12.0,19.0,78,0.00,,,0.00,,2013-04-01 07:52:00,
2013-04-01 03:02:00,20.0,14.0,-100.00,NNW,335,13.0,19.0,78,0.00,,,0.00,,2013-04-01 08:02:00,
2013-04-01 03:12:00,20.0,14.0,-100.00,NNW,330,12.0,17.0,78,0.00,,,0.00,,2013-04-01 08:12:00,
2013-04-01 03:22:00,20.0,14.0,-100.00,NW,315,13.0,17.0,79,0.00,,,0.00,,2013-04-01 08:22:00,
2013-04-01 03:32:00,20.0,14.0,-100.00,NW,320,14.0,17.0,79,0.00,,,0.00,,2013-04-01 08:32:00,
2013-04-01 03:43:00,20.0,14.0,-100.00,NW,315,13.0,17.0,80,0.00,,,0.00,,2013-04-01 08:43:00,
2013-04-01 03:52:00,19.0,14.0,-100.00,NW,310,14.0,19.0,80,0.00,,,0.00,,2013-04-01 08:52:00,
2013-04-01 04:02:00,19.0,14.0,-100.00,NW,320,12.0,18.0,80,0.00,,,0.00,,2013-04-01 09:02:00,
2013-04-01 04:12:00,19.0,14.0,-100.00,NW,320,12.0,17.0,80,0.00,,,0.00,,2013-04-01 09:12:00,
2013-04-01 04:22:00,19.0,14.0,-100.00,NW,315,15.0,17.0,80,0.00,,,0.00,,2013-04-01 09:22:00,
2013-04-01 04:33:00,19.0,14.0,-100.00,NW,315,14.0,18.0,81,0.00,,,0.00,,2013-04-01 09:33:00,
2013-04-01 04:42:00,19.0,14.0,-100.00,NW,320,13.0,19.0,81,0.00,,,0.00,,2013-04-01 09:42:00,
2013-04-01 04:52:00,19.0,14.0,-100.00,NW,320,13.0,18.0,81,0.00,,,0.00,,2013-04-01 09:52:00,
2013-04-01 05:03:00,19.0,14.0,-100.00,NW,315,12.0,17.0,81,0.00,,,0.00,,2013-04-01 10:03:00,
2013-04-01 05:12:00,18.0,14.0,-100.00,NW,325,14.0,17.0,81,0.00,,,0.00,,2013-04-01 10:12:00,
2013-04-01 05:23:00,18.0,14.0,-100.00,NNW,330,11.0,16.0,81,0.00,,,0.00,,2013-04-01 10:23:00,
2013-04-01 05:33:00,18.0,14.0,-100.00,NNW,330,13.0,16.0,81,0.00,,,0.00,,2013-04-01 10:33:00,
2013-04-01 05:42:00,18.0,14.0,-100.00,NNW,330,12.0,18.0,81,0.00,,,0.00,,2013-04-01 10:42:00,
2013-04-01 05:53:00,18.0,14.0,-100.00,NNW,330,11.0,17.0,81,0.00,,,0.00,,2013-04-01 10:53:00,
2013-04-01 06:03:00,18.0,14.0,-100.00,NW,325,13.0,17.0,81,0.00,,,0.00,,2013-04-01 11:03:00,
2013-04-01 06:12:00,18.0,14.0,-100.00,NW,315,12.0,17.0,81,0.00,,,0.00,,2013-04-01 11:12:00,
2013-04-01 06:23:00,18.0,14.0,-100.00,NW,325,13.0,17.0,82,0.00,,,0.00,,2013-04-01 11:23:00,
2013-04-01 06:33:00,18.0,14.0,-100.00,NNW,330,11.0,16.0,82,0.00,,,0.00,,2013-04-01 11:33:00,
2013-04-01 06:42:00,18.0,14.0,-100.00,NW,320,12.0,14.0,82,0.00,,,0.00,,2013-04-01 11:42:00,
2013-04-01 06:52:00,18.0,14.0,-100.00,NW,320,12.0,16.0,82,0.00,,,0.00,,2013-04-01 11:52:00,
2013-04-01 07:02:00,18.0,14.0,-100.00,NW,310,13.0,15.0,82,0.00,,,0.00,,2013-04-01 12:02:00,
2013-04-01 07:12:00,18.0,14.0,-100.00,NW,315,11.0,16.0,82,0.00,,,0.00,,2013-04-01 12:12:00,
2013-04-01 07:22:00,18.0,14.0,-100.00,NW,315,12.0,16.0,82,0.00,,,0.00,,2013-04-01 12:22:00,
2013-04-01 07:32:00,18.0,14.0,-100.00,NW,305,13.0,17.0,82,0.00,,,0.00,,2013-04-01 12:32:00,
2013-04-01 07:42:00,18.0,14.0,-100.00,NW,305,13.0,17.0,82,0.00,,,0.00,,2013-04-01 12:42:00,
2013-04-01 07:52:00,18.0,14.0,-100.00,NW,305,14.0,17.0,82,0.00,,,0.00,,2013-04-01 12:52:00,
2013-04-01 08:02:00,19.0,14.0,-100.00,NW,310,11.0,19.0,81,0.00,,,0.00,,2013-04-01 13:02:00,
2013-04-01 08:12:00,18.0,14.0,-100.00,NW,315,14.0,19.0,81,0.00,,,0.00,,2013-04-01 13:12:00,
2013-04-01 08:22:00,19.0,14.0,-100.00,NW,320,14.0,19.0,80,0.00,,,0.00,,2013-04-01 13:22:00,
2013-04-01 08:32:00,19.0,14.0,-100.00,NW,305,15.0,19.0,79,0.00,,,0.00,,2013-04-01 13:32:00,
2013-04-01 08:42:00,20.0,14.0,-100.00,NW,310,14.0,19.0,78,0.00,,,0.00,,2013-04-01 13:42:00,
2013-04-01 08:52:00,19.0,14.0,-100.00,NW,320,17.0,21.0,77,0.00,,,0.00,,2013-04-01 13:52:00,
2013-04-01 09:03:00,19.0,12.0,-100.00,NW,325,16.0,21.0,76,0.00,,,0.00,,2013-04-01 14:03:00,
2013-04-01 09:12:00,20.0,14.0,-100.00,NW,325,14.0,21.0,76,0.00,,,0.00,,2013-04-01 14:12:00,
2013-04-01 09:22:00,20.0,14.0,-100.00,NW,325,15.0,19.0,76,0.00,,,0.00,,2013-04-01 14:22:00,
2013-04-01 09:32:00,20.0,14.0,-100.00,NW,320,13.0,18.0,77,0.00,,,0.00,,2013-04-01 14:32:00,
2013-04-01 09:42:00,20.0,14.0,-100.00,NNW,330,13.0,20.0,76,0.00,,,0.00,,2013-04-01 14:42:00,
2013-04-01 09:52:00,20.0,14.0,-100.00,NNW,330,15.0,19.0,76,0.00,,,0.00,,2013-04-01 14:52:00,
2013-04-01 10:03:00,20.0,14.0,-100.00,NNW,330,14.0,20.0,75,0.00,,,0.00,,2013-04-01 15:03:00,
2013-04-01 10:13:00,20.0,14.0,-100.00,NW,320,14.0,19.0,75,0.00,,,0.00,,2013-04-01 15:13:00,
2013-04-01 10:22:00,21.0,14.0,-100.00,NW,310,14.0,16.0,75,0.00,,,0.00,,2013-04-01 15:22:00,
2013-04-01 10:34:00,22.0,16.0,-100.00,NW,320,12.0,16.0,76,0.00,,,0.00,,2013-04-01 15:34:00,
2013-04-01 10:43:00,22.0,16.0,-100.00,NW,315,14.0,17.0,76,0.00,,,0.00,,2013-04-01 15:43:00,
2013-04-01 10:53:00,23.0,16.0,-100.00,NNW,330,12.0,17.0,75,0.00,,,0.00,,2013-04-01 15:53:00,
2013-04-01 11:03:00,22.0,16.0,-100.00,NW,325,13.0,17.0,74,0.00,,,0.00,,2013-04-01 16:03:00,
2013-04-01 11:13:00,23.0,16.0,-100.00,NNW,330,11.0,17.0,74,0.00,,,0.00,,2013-04-01 16:13:00,
2013-04-01 11:23:00,24.0,16.0,-100.00,NNW,330,9.0,13.0,73,0.00,,,0.00,,2013-04-01 16:23:00,
2013-04-01 11:33:00,24.0,16.0,-100.00,NNW,335,12.0,15.0,72,0.00,,,0.00,,2013-04-01 16:33:00,
2013-04-01 11:42:00,25.0,18.0,-100.00,WNW,295,10.0,14.0,71,0.00,,,0.00,,2013-04-01 16:42:00,
2013-04-01 11:52:00,24.0,16.0,-100.00,NW,320,10.0,17.0,71,0.00,,,0.00,,2013-04-01 16:52:00,
2013-04-01 12:03:00,25.0,16.0,-100.00,NW,320,12.0,17.0,70,0.00,,,0.00,,2013-04-01 17:03:00,
2013-04-01 12:22:00,26.0,18.0,-100.00,NW,315,10.0,14.0,71,0.00,,,0.00,,2013-04-01 17:22:00,
2013-04-01 12:32:00,26.0,18.0,-100.00,WNW,285,14.0,22.0,70,0.00,,,0.00,,2013-04-01 17:32:00,
2013-04-01 12:42:00,27.0,19.0,-100.00,NW,310,12.0,19.0,72,0.00,,,0.00,,2013-04-01 17:42:00,
2013-04-01 12:52:00,27.0,19.0,-100.00,WNW,300,14.0,18.0,70,0.00,,,0.00,,2013-04-01 17:52:00,
2013-04-01 13:02:00,26.0,18.0,-100.00,WNW,300,14.0,18.0,68,0.00,,,0.00,,2013-04-01 18:02:00,
2013-04-01 13:12:00,27.0,19.0,-100.00,NW,315,14.0,22.0,70,0.00,,,0.00,,2013-04-01 18:12:00,
2013-04-01 13:22:00,27.0,19.0,-100.00,WNW,300,16.0,22.0,71,0.00,,,0.00,,2013-04-01 18:22:00,
2013-04-01 13:32:00,27.0,19.0,-100.00,WNW,300,17.0,22.0,69,0.00,,,0.00,,2013-04-01 18:32:00,
2013-04-01 13:42:00,28.0,19.0,-100.00,NW,315,14.0,18.0,70,0.00,,,0.00,,2013-04-01 18:42:00,
2013-04-01 13:52:00,28.0,19.0,-100.00,NW,320,16.0,20.0,69,0.00,,,0.00,,2013-04-01 18:52:00,
2013-04-01 14:03:00,29.0,19.0,-100.00,WNW,300,14.0,20.0,68,0.00,,,0.00,,2013-04-01 19:03:00,
2013-04-01 14:12:00,29.0,19.0,-100.00,NW,305,15.0,20.0,67,0.00,,,0.00,,2013-04-01 19:12:00,
2013-04-01 14:23:00,30.0,21.0,-100.00,NW,325,14.0,19.0,67,0.00,,,0.00,,2013-04-01 19:23:00,
2013-04-01 14:32:00,29.0,19.0,-100.00,WNW,285,13.0,18.0,67,0.00,,,0.00,,2013-04-01 19:32:00,
2013-04-01 14:42:00,30.0,21.0,-100.00,NNW,330,11.0,18.0,68,0.00,,,0.00,,2013-04-01 19:42:00,
2013-04-01 14:52:00,31.0,21.0,-100.00,West,280,15.0,19.0,68,0.00,,,0.00,,2013-04-01 19:52:00,
2013-04-01 15:02:00,30.0,19.0,-100.00,WNW,300,16.0,22.0,66,0.00,,,0.00,,2013-04-01 20:02:00,
2013-04-01 15:12:00,30.0,19.0,-100.00,WNW,285,16.0,22.0,65,0.00,,,0.00,,2013-04-01 20:12:00,
2013-04-01 15:22:00,31.0,21.0,-100.00,WNW,300,15.0,20.0,67,0.00,,,0.00,,2013-04-01 20:22:00,
2013-04-01 15:32:00,31.0,21.0,-100.00,WNW,300,16.0,21.0,67,0.00,,,0.00,,2013-04-01 20:32:00,
2013-04-01 15:42:00,31.0,21.0,-100.00,NW,310,13.0,22.0,66,0.00,,,0.00,,2013-04-01 20:42:00,
2013-04-01 15:52:00,31.0,19.0,-100.00,NW,320,16.0,21.0,64,0.00,,,0.00,,2013-04-01 20:52:00,
2013-04-01 16:02:00,32.0,21.0,-100.00,WNW,295,17.0,22.0,64,0.00,,,0.00,,2013-04-01 21:02:00,
2013-04-01 16:12:00,32.0,21.0,-100.00,WNW,285,15.0,20.0,63,0.00,,,0.00,,2013-04-01 21:12:00,
2013-04-01 16:22:00,32.0,21.0,-100.00,WNW,300,16.0,22.0,64,0.00,,,0.00,,2013-04-01 21:22:00,
2013-04-01 16:32:00,31.0,19.0,-100.00,WNW,300,17.0,22.0,63,0.00,,,0.00,,2013-04-01 21:32:00,
2013-04-01 16:43:00,31.0,19.0,-100.00,NW,305,17.0,20.0,63,0.00,,,0.00,,2013-04-01 21:43:00,
2013-04-01 16:52:00,31.0,21.0,-100.00,NW,305,18.0,24.0,64,0.00,,,0.00,,2013-04-01 21:52:00,
2013-04-01 17:02:00,32.0,21.0,-100.00,NW,310,16.0,22.0,62,0.00,,,0.00,,2013-04-01 22:02:00,
2013-04-01 17:12:00,31.0,19.0,-100.00,WNW,290,17.0,21.0,61,0.00,,,0.00,,2013-04-01 22:12:00,
2013-04-01 17:22:00,32.0,21.0,-100.00,NW,310,11.0,19.0,64,0.00,,,0.00,,2013-04-01 22:22:00,
2013-04-01 17:33:00,31.0,19.0,-100.00,NW,305,16.0,21.0,62,0.00,,,0.00,,2013-04-01 22:33:00,
2013-04-01 17:43:00,31.0,19.0,-100.00,NW,315,17.0,20.0,63,0.00,,,0.00,,2013-04-01 22:43:00,
2013-04-01 17:52:00,31.0,21.0,-100.00,NW,310,16.0,21.0,63,0.00,,,0.00,,2013-04-01 22:52:00,
2013-04-01 18:02:00,31.0,19.0,-100.00,WNW,300,16.0,22.0,62,0.00,,,0.00,,2013-04-01 23:02:00,
2013-04-01 18:12:00,31.0,21.0,-100.00,NW,310,17.0,20.0,64,0.00,,,0.00,,2013-04-01 23:12:00,
2013-04-01 18:22:00,31.0,21.0,-100.00,NW,315,14.0,19.0,65,0.00,,,0.00,,2013-04-01 23:22:00,
2013-04-01 18:32:00,31.0,21.0,-100.00,NW,305,15.0,19.0,64,0.00,,,0.00,,2013-04-01 23:32:00,
2013-04-01 18:42:00,31.0,19.0,-100.00,NW,310,13.0,19.0,64,0.00,,,0.00,,2013-04-01 23:42:00,
2013-04-01 18:52:00,30.0,19.0,-100.00,NW,315,16.0,20.0,63,0.00,,,0.00,,2013-04-01 23:52:00,
2013-04-01 19:02:00,31.0,19.0,-100.00,NW,305,13.0,19.0,65,0.00,,,0.00,,2013-04-02 00:02:00,
2013-04-01 19:12:00,30.0,19.0,-100.00,NW,305,17.0,21.0,65,0.00,,,0.00,,2013-04-02 00:12:00,
2013-04-01 19:22:00,30.0,19.0,-100.00,NW,315,16.0,20.0,66,0.00,,,0.00,,2013-04-02 00:22:00,
2013-04-01 19:33:00,30.0,19.0,-100.00,NW,310,15.0,20.0,67,0.00,,,0.00,,2013-04-02 00:33:00,
2013-04-01 19:42:00,29.0,19.0,-100.00,NW,305,16.0,19.0,67,0.00,,,0.00,,2013-04-02 00:42:00,
2013-04-01 19:52:00,29.0,19.0,-100.00,NW,305,12.0,17.0,68,0.00,,,0.00,,2013-04-02 00:52:00,
2013-04-01 20:02:00,29.0,21.0,-100.00,NW,305,13.0,17.0,70,0.00,,,0.00,,2013-04-02 01:02:00,
2013-04-01 20:12:00,29.0,19.0,-100.00,NW,315,13.0,17.0,70,0.00,,,0.00,,2013-04-02 01:12:00,
2013-04-01 20:22:00,28.0,19.0,-100.00,NW,305,14.0,17.0,70,0.00,,,0.00,,2013-04-02 01:22:00,
2013-04-01 20:32:00,28.0,19.0,-100.00,NW,305,9.0,17.0,71,0.00,,,0.00,,2013-04-02 01:32:00,
2013-04-01 20:42:00,28.0,19.0,-100.00,WNW,300,11.0,15.0,71,0.00,,,0.00,,2013-04-02 01:42:00,
2013-04-01 20:52:00,28.0,19.0,-100.00,WNW,300,10.0,13.0,72,0.00,,,0.00,,2013-04-02 01:52:00,
2013-04-01 21:02:00,28.0,19.0,-100.00,WNW,300,10.0,14.0,73,0.00,,,0.00,,2013-04-02 02:02:00,
2013-04-01 21:12:00,28.0,19.0,-100.00,WNW,300,12.0,14.0,72,0.00,,,0.00,,2013-04-02 02:12:00,
2013-04-01 21:22:00,27.0,19.0,-100.00,WNW,295,11.0,14.0,72,0.00,,,0.00,,2013-04-02 02:22:00,
2013-04-01 21:32:00,27.0,19.0,-100.00,NW,305,11.0,15.0,72,0.00,,,0.00,,2013-04-02 02:32:00,
2013-04-01 21:42:00,27.0,19.0,-100.00,NW,305,11.0,14.0,74,0.00,,,0.00,,2013-04-02 02:42:00,
2013-04-01 21:52:00,27.0,19.0,-100.00,WNW,295,11.0,16.0,74,0.00,,,0.00,,2013-04-02 02:52:00,
2013-04-01 22:02:00,27.0,19.0,-100.00,WNW,295,11.0,15.0,74,0.00,,,0.00,,2013-04-02 03:02:00,
2013-04-01 22:12:00,26.0,19.0,-100.00,WNW,285,12.0,15.0,75,0.00,,,0.00,,2013-04-02 03:12:00,
2013-04-01 22:22:00,26.0,19.0,-100.00,WNW,290,13.0,17.0,75,0.00,,,0.00,,2013-04-02 03:22:00,
2013-04-01 22:33:00,26.0,19.0,-100.00,WNW,290,12.0,15.0,76,0.00,,,0.00,,2013-04-02 03:33:00,
2013-04-01 22:43:00,26.0,19.0,-100.00,WNW,295,11.0,17.0,76,0.00,,,0.00,,2013-04-02 03:43:00,
2013-04-01 22:53:00,26.0,19.0,-100.00,WNW,295,10.0,16.0,76,0.00,,,0.00,,2013-04-02 03:53:00,
2013-04-01 23:03:00,25.0,19.0,-100.00,NW,305,10.0,14.0,77,0.00,,,0.00,,2013-04-02 04:03:00,
2013-04-01 23:13:00,25.0,19.0,-100.00,WNW,300,11.0,13.0,78,0.00,,,0.00,,2013-04-02 04:13:00,
2013-04-01 23:22:00,25.0,19.0,-100.00,NW,315,10.0,16.0,79,0.00,,,0.00,,2013-04-02 04:22:00,
2013-04-01 23:32:00,25.0,19.0,-100.00,NW,305,12.0,14.0,79,0.00,,,0.00,,2013-04-02 04:32:00,
2013-04-01 23:42:00,25.0,19.0,-100.00,WNW,290,12.0,15.0,79,0.00,,,0.00,,2013-04-02 04:42:00,
2013-04-01 23:52:00,24.0,19.0,-100.00,West,275,11.0,17.0,79,0.00,,,0.00,,2013-04-02 04:52:00,